Temperature
16 16 16 16 16 16 16 17 17 17 18 18 17 17 16 16 16 16 16 16 16 16 16 16 16 16 16 15 15 15 15 15 15 15 14 14 14 14
16 16 16 16 16 16 16 16 16 17 17 18 17 17 16 16 16 16 16 16 16 16 16 16 16 16 15 15 15 15 15 15 15 14 14 14 14 14
16 16 16 16 16 16 16 16 16 16 16 17 17 16 16 16 16 16 16 16 16 16 16 16 16 15 15 15 15 15 15 15 15 14 14 14 14 14
16 16 16 16 16 16 16 16 16 16 16 16 16 16 16 15 15 16 15 16 16 16 16 16 16 15 15 15 15 15 15 14 14 14 14 14 14 13
16 16 16 16 16 16 16 16 16 16 16 15 16 16 16 15 15 15 15 15 15 16 16 16 15 15 15 15 15 15 15 14 14 14 14 14 14 13
16 16 16 16 16 16 15 15 15 15 15 15 15 15 15 15 15 15 15 15 15 15 15 15 15 15 15 15 15 15 14 14 14 14 14 13 13 13
16 16 16 16 16 16 15 15 15 15 15 15 15 15 15 15 15 15 15 15 15 15 14 15 15 15 15 15 15 14 14 14 14 14 13 13 13 13
16 16 16 16 16 16 15 15 15 15 15 15 15 15 15 14 14 14 14 14 14 14 14 14 14 14 14 14 14 14 14 14 14 13 13 13 13 12
16 16 16 15 15 15 15 15 15 15 15 15 14 14 14 14 14 14 14 14 14 14 14 14 14 14 14 14 14 14 14 14 13 13 13 13 12 12
15 15 15 15 15 15 15 15 15 15 14 14 14 14 14 14 14 14 14 13 14 14 13 13 14 14 13 13 13 13 13 13 13 13 13 12 12 12
15 15 15 15 15 15 14 14 14 14 14 14 14 14 14 14 14 13 13 13 13 13 13 13 13 13 13 13 13 13 13 13 13 13 12 12 12 11
15 15 15 15 15 15 14 14 14 14 14 14 14 14 14 13 13 13 13 13 13 13 13 13 13 13 13 13 13 13 13 13 12 12 12 12 12 11
15 15 15 15 14 14 14 14 14 14 13 14 14 14 13 13 13 13 13 13 13 13 13 12 12 12 12 12 12 12 12 12 12 12 12 11 11 11
14 14 14 14 14 14 14 14 14 13 13 13 13 13 13 13 13 12 12 12 12 12 12 12 12 12 12 12 12 12 12 12 12 11 11 11 11 11
14 14 14 14 14 14 13 13 13 13 13 13 13 13 13 12 12 12 12 12 12 12 12 12 12 11 11 11 12 11 11 11 11 11 11 11 11 10
13 13 13 14 13 13 13 13 13 12 12 12 12 12 12 12 12 12 12 12 12 12 12 12 11 11 11 11 11 11 11 11 11 11 11 10 10 10
13 13 13 13 13 13 13 13 12 12 12 12 12 12 12 12 12 12 11 11 11 11 11 11 11 11 11 11 11 11 11 11 11 10 10 10 10 10
13 13 13 13 13 13 12 12 12 12 12 11 11 11 11 11 11 11 11 11 11 11 11 11 11 11 10 11 10 10 10 10 10 10 10 9 9 9
13 12 12 12 12 12 12 12 12 11 11 11 11 11 11 11 11 11 11 11 10 10 10 10 10 10 10 10 10 10 10 9 9 9 9 9 9 9
12 12 12 12 12 12 11 11 11 11 11 11 11 10 10 10 10 10 10 10 10 10 10 10 10 10 10 10 10 9 9 9 9 9 9 9 9 9
12 12 12 11 11 11 11 11 11 10 10 10 10 10 10 10 10 10 10 10 10 10 10 10 10 9 9 9 9 9 9 9 9 9 9 9 8 8
11 11 11 11 11 11 10 10 10 10 10 10 10 10 9 9 10 9 10 10 9 9 9 9 9 9 9 9 9 9 9 9 9 9 9 9 8 8
11 11 11 10 10 10 10 10 10 9 9 9 9 9 9 9 9 9 9 9 9 9 9 9 9 9 9 9 9 9 9 9 8 8 8 8 8 8
Wind_Speed
5 5 5 4 4 4 4 5 5 6 5 4 3 3 4 5 4 6 6 8 9 10 11 11 11 10 10 11 10 10 11 11 10 10 10 9 9 9
4 5 5 5 4 5 5 5 6 6 6 4 4 4 3 5 6 7 7 8 11 11 11 11 11 11 11 11 11 11 12 12 11 11 10 10 9 9
5 5 5 6 5 5 5 5 6 6 7 6 5 3 4 6 5 6 8 8 8 13 12 11 11 11 12 12 12 12 12 12 12 12 11 11 10 10
6 6 6 5 6 6 6 6 6 6 7 8 6 5 5 5 5 6 6 6 7 9 12 12 12 12 12 13 13 13 12 12 12 12 12 12 12 11
6 6 7 6 7 6 7 7 6 6 6 7 7 5 5 4 5 6 7 5 8 7 11 13 13 13 13 14 14 14 14 13 13 12 12 13 12 12
6 7 6 7 7 7 7 7 7 7 7 7 7 6 5 4 5 5 6 5 6 6 6 7 10 14 14 15 15 15 14 14 13 13 14 13 13 12
6 7 6 6 6 7 7 7 7 7 7 7 7 6 5 4 5 5 6 6 6 6 5 6 6 7 9 12 14 14 14 14 14 14 14 14 13 13
6 7 7 7 7 9 9 9 9 8 8 7 8 7 7 6 6 6 6 6 6 4 5 6 5 6 6 7 9 13 14 14 14 14 14 14 13 13
7 7 7 6 6 8 8 10 10 10 10 9 9 9 8 7 7 8 7 7 8 6 5 6 5 6 6 5 9 12 14 14 14 14 14 14 14 13
7 8 8 8 7 7 9 9 8 8 9 9 9 9 8 6 7 8 8 8 8 7 5 6 5 5 5 4 8 10 12 14 15 15 15 14 14 13
8 7 8 7 5 6 8 9 9 8 7 8 9 9 8 7 7 7 7 7 7 6 5 6 6 5 5 5 5 10 12 14 15 15 15 15 14 13
7 7 6 6 5 5 8 8 8 8 7 6 6 7 8 8 10 9 8 7 7 6 5 5 6 5 5 5 4 5 7 11 14 15 15 15 15 12
7 7 5 4 6 6 8 8 9 8 8 8 7 6 6 6 7 8 8 8 8 8 5 5 6 6 6 5 4 4 5 5 7 9 13 15 16 14
8 7 5 3 6 8 8 8 9 8 7 7 6 6 6 6 6 7 7 7 8 9 8 6 6 6 6 7 6 5 4 4 5 5 6 10 14 15
8 7 7 7 8 8 8 8 8 6 6 7 7 6 6 5 5 5 6 6 7 8 8 7 7 7 7 7 6 5 5 5 5 5 5 6 7 7
8 8 10 11 9 8 6 6 6 6 6 7 7 6 5 5 5 5 5 5 5 6 6 7 7 8 7 7 6 6 6 5 5 5 5 5 5 7
7 7 7 6 5 5 5 5 5 6 6 6 6 6 5 5 5 5 5 5 6 6 5 5 5 5 6 6 6 6 6 5 5 4 4 5 6 6
7 6 6 6 6 6 6 6 5 6 6 6 6 5 5 5 5 5 5 5 6 6 6 5 4 4 4 4 5 6 5 5 4 4 5 5 6 6
6 6 6 6 6 6 6 6 6 6 5 6 6 5 5 5 5 5 5 5 6 6 6 5 5 5 6 6 5 4 6 5 5 5 5 6 6 5
6 6 6 6 6 6 6 6 6 5 5 5 6 5 5 5 5 5 6 6 6 6 6 5 5 5 6 7 6 5 6 7 5 5 5 5 5 3
6 5 5 5 5 5 5 6 6 5 5 5 5 5 5 6 6 6 6 6 7 7 7 6 5 6 6 5 5 5 4 4 5 5 5 5 5 5
5 5 5 5 5 5 5 5 5 5 5 5 5 5 5 6 6 7 7 6 6 7 7 6 5 5 5 6 6 6 5 4 4 5 4 4 4 5
5 5 4 5 5 4 4 5 5 5 5 5 5 5 6 6 5 6 6 6 6 6 6 6 5 4 5 6 6 5 6 5 4 4 3 3 4 3
Wind_Direction
266 263 265 268 266 266 261 257 266 278 280 262 250 234 238 245 216 238 245 201 210 221 222 223 219 217 218 219 220 219 216 214 215 215 215 214 213 213
268 274 271 271 265 261 262 263 262 268 277 277 267 267 255 259 226 241 244 208 211 212 214 218 219 218 218 216 217 218 215 212 212 212 212 212 212 213
271 267 267 273 271 271 265 261 261 263 266 275 276 272 254 258 256 251 246 238 226 201 207 215 221 223 224 221 219 217 215 213 213 210 210 211 210 212
271 273 273 269 267 269 271 267 267 264 262 269 272 268 260 248 252 257 252 245 247 198 200 213 220 224 225 224 221 218 215 214 211 211 212 212 211 212
269 272 275 276 273 272 269 270 269 265 263 265 268 267 267 257 255 255 256 251 251 221 202 210 216 221 224 224 220 217 215 215 214 213 213 214 213 212
269 269 270 272 272 272 266 264 266 268 263 262 265 265 259 256 251 258 262 252 254 253 234 221 213 216 221 222 219 216 214 214 215 215 214 213 212 211
270 270 265 265 270 270 273 272 267 264 265 264 264 266 263 263 263 263 264 267 261 252 246 237 223 226 220 217 216 214 213 212 212 213 212 210 208 209
273 273 268 258 258 246 250 258 262 260 267 268 268 266 264 262 267 265 265 267 272 254 248 254 245 242 231 226 203 201 208 210 210 210 209 208 209 210
273 271 274 274 267 271 253 241 247 243 246 257 265 269 270 265 265 264 258 262 267 265 253 260 253 247 241 221 188 199 205 208 210 210 208 208 208 208
268 268 270 275 274 277 275 270 266 256 245 246 254 261 266 271 262 262 264 261 261 255 238 254 254 252 251 230 192 198 204 206 208 209 208 208 207 208
269 266 265 269 277 276 269 270 271 269 250 240 243 249 253 252 254 258 259 257 261 259 237 249 261 260 256 240 203 194 202 205 207 208 207 205 205 205
270 264 247 256 269 266 269 270 271 274 275 270 250 242 245 243 232 239 249 255 261 264 240 237 256 260 262 249 230 215 212 206 206 208 209 209 204 209
282 279 274 219 251 260 265 271 269 271 270 265 260 255 250 248 247 246 249 251 258 261 256 241 255 254 255 262 259 244 231 225 213 212 210 208 204 209
281 285 289 248 255 257 259 266 267 265 263 261 260 257 256 256 258 257 252 252 261 267 266 255 250 251 249 256 260 253 240 234 228 222 215 198 203 210
276 282 282 265 256 254 241 245 254 259 264 264 263 263 264 265 262 256 256 251 254 258 253 245 248 253 249 251 255 253 254 249 239 229 216 208 206 203
271 263 244 243 245 258 258 246 254 261 263 266 273 276 273 265 258 259 260 257 260 261 249 240 241 246 246 249 252 252 248 248 244 237 226 220 212 207
289 277 277 275 270 266 264 266 268 266 261 263 266 268 266 265 262 258 257 260 260 260 258 254 249 243 243 247 247 247 248 248 244 231 224 229 226 218
274 273 274 274 277 277 273 269 267 264 265 265 264 261 261 260 262 261 254 255 258 260 261 263 260 256 258 255 244 248 248 248 242 229 232 234 233 222
257 268 271 274 276 275 275 273 271 270 268 264 261 259 259 258 258 257 257 256 258 263 266 263 254 249 254 262 257 229 249 250 242 237 233 236 240 233
261 266 270 272 273 276 277 277 276 273 266 264 264 263 260 260 258 257 258 261 266 268 268 264 258 257 256 261 265 261 238 245 245 242 241 242 247 221
276 277 278 278 275 275 278 279 275 269 271 270 269 267 261 260 259 258 260 261 264 268 269 269 272 263 265 260 254 253 249 231 240 247 247 240 236 230
287 288 288 289 285 282 280 279 278 271 267 263 267 267 262 261 263 262 262 262 262 265 274 278 275 263 259 255 254 256 262 257 223 218 240 252 248 240
298 296 291 288 289 290 285 281 281 279 276 274 270 267 264 263 266 266 265 267 269 270 277 278 275 266 260 254 254 256 255 254 241 234 238 197 183 192
Height
1524 1523 1522 1522 1522 1521 1521 1521 1521 1519 1518 1518 1518 1517 1516 1516 1515 1514 1513 1512 1511 1511 1511 1511 1511 1511 1512 1513 1513 1514 1514 1515 1516 1516 1517 1518 1518 1519
1521 1520 1520 1520 1519 1519 1519 1518 1518 1517 1516 1515 1515 1514 1513 1513 1512 1511 1510 1509 1508 1508 1507 1507 1507 1508 1508 1508 1509 1509 1510 1511 1511 1512 1513 1514 1514 1515
1519 1518 1517 1516 1516 1516 1515 1515 1514 1514 1512 1512 1512 1511 1509 1508 1508 1507 1506 1506 1505 1504 1504 1503 1503 1503 1504 1504 1504 1505 1506 1506 1507 1508 1509 1509 1510 1511
1516 1515 1514 1514 1513 1512 1512 1511 1511 1510 1509 1508 1507 1507 1506 1505 1504 1503 1503 1503 1502 1501 1500 1500 1499 1499 1499 1500 1500 1500 1501 1502 1503 1503 1504 1505 1506 1507
1513 1512 1511 1510 1509 1509 1508 1508 1507 1507 1505 1504 1503 1503 1502 1502 1501 1500 1500 1498 1498 1498 1496 1495 1495 1495 1495 1495 1495 1496 1496 1497 1498 1499 1500 1500 1501 1502
1510 1509 1508 1507 1506 1505 1505 1504 1503 1502 1502 1501 1500 1500 1499 1498 1497 1497 1496 1495 1494 1494 1493 1492 1491 1490 1490 1490 1490 1491 1491 1492 1493 1494 1495 1495 1496 1497
1506 1505 1505 1503 1502 1501 1501 1500 1499 1498 1498 1497 1497 1496 1495 1494 1494 1493 1492 1491 1491 1490 1489 1488 1487 1486 1486 1486 1486 1486 1486 1487 1488 1489 1490 1490 1491 1492
1502 1502 1501 1500 1498 1497 1496 1495 1495 1494 1493 1493 1492 1492 1491 1490 1490 1489 1488 1487 1487 1486 1485 1484 1484 1482 1482 1481 1481 1481 1482 1482 1483 1484 1484 1485 1486 1487
1499 1498 1497 1496 1494 1493 1492 1491 1490 1489 1488 1488 1487 1486 1486 1485 1485 1484 1483 1482 1482 1482 1481 1479 1479 1478 1478 1478 1477 1477 1477 1477 1478 1479 1480 1480 1481 1482
1495 1493 1492 1491 1490 1489 1487 1487 1486 1484 1484 1483 1482 1481 1481 1480 1479 1479 1478 1477 1477 1477 1476 1475 1475 1474 1474 1473 1472 1472 1472 1472 1473 1473 1474 1475 1476 1478
1491 1489 1487 1486 1485 1484 1483 1482 1481 1480 1479 1478 1477 1476 1475 1475 1475 1474 1474 1473 1472 1472 1472 1471 1471 1470 1469 1468 1467 1467 1467 1467 1467 1468 1469 1470 1471 1473
1486 1485 1483 1482 1481 1480 1479 1478 1476 1475 1474 1473 1472 1471 1470 1470 1469 1469 1469 1468 1468 1467 1467 1467 1466 1466 1465 1464 1463 1463 1462 1462 1462 1463 1464 1465 1466 1467
1482 1481 1479 1477 1476 1475 1474 1473 1472 1471 1469 1468 1467 1466 1466 1465 1464 1464 1463 1463 1463 1462 1462 1462 1461 1461 1461 1460 1459 1459 1459 1458 1458 1458 1458 1459 1460 1462
1477 1476 1475 1473 1471 1470 1469 1468 1467 1466 1465 1464 1462 1461 1460 1460 1459 1459 1458 1458 1457 1457 1457 1457 1456 1457 1456 1456 1455 1455 1455 1454 1454 1453 1454 1454 1455 1456
1472 1471 1469 1468 1466 1466 1465 1463 1463 1462 1460 1459 1458 1457 1456 1455 1454 1454 1453 1453 1452 1452 1452 1452 1452 1451 1451 1451 1450 1450 1450 1449 1449 1449 1449 1449 1450 1450
1467 1465 1464 1463 1461 1460 1460 1459 1458 1457 1456 1455 1454 1452 1451 1451 1450 1449 1449 1449 1448 1447 1447 1447 1447 1446 1446 1446 1445 1445 1445 1444 1444 1444 1444 1444 1445 1445
1462 1461 1460 1459 1457 1456 1455 1454 1453 1453 1452 1450 1449 1448 1447 1446 1446 1445 1445 1445 1444 1443 1443 1442 1442 1441 1440 1440 1440 1440 1440 1439 1439 1438 1438 1439 1439 1440
1457 1456 1455 1454 1453 1452 1451 1450 1449 1448 1447 1446 1445 1444 1443 1442 1442 1441 1441 1441 1440 1439 1439 1438 1438 1437 1436 1435 1436 1435 1435 1434 1434 1434 1434 1434 1434 1436
1452 1451 1450 1449 1449 1448 1447 1446 1445 1444 1443 1442 1441 1440 1439 1439 1438 1437 1437 1436 1436 1435 1435 1434 1434 1433 1432 1431 1431 1431 1430 1430 1430 1430 1430 1430 1430 1431
1448 1446 1445 1445 1444 1443 1443 1442 1441 1440 1439 1438 1437 1436 1436 1435 1434 1433 1433 1432 1432 1431 1430 1430 1429 1428 1427 1427 1426 1426 1426 1426 1425 1425 1425 1425 1426 1426
1444 1442 1441 1440 1439 1439 1438 1437 1436 1435 1434 1434 1433 1432 1432 1431 1430 1430 1429 1428 1428 1427 1426 1425 1424 1424 1423 1423 1422 1421 1422 1421 1420 1420 1420 1421 1421 1421
1440 1439 1437 1436 1436 1435 1434 1433 1432 1431 1430 1429 1429 1428 1428 1427 1426 1426 1425 1424 1423 1423 1422 1421 1420 1419 1419 1418 1417 1417 1417 1417 1416 1416 1416 1416 1416 1416
1436 1435 1434 1433 1432 1431 1430 1429 1428 1427 1426 1425 1425 1424 1424 1423 1422 1422 1421 1420 1419 1418 1417 1416 1416 1415 1415 1414 1414 1413 1413 1412 1412 1412 1411 1411 1412 1412